User: anonymous   Login
Location: Unspecified
(0.0000°N, 0.0000°E)
Time: 09:23:25
(UTC+00:00)
Language:

PANSAT - Orbit

View from above orbital plane
View from above orbital plane
View from above satellite
View from above satellite

Ground track
Ground track

The orbit data is extracted from the following two-line orbital elements,

1 25520U 98064B   17086.53838805 +.00001293 +00000-0 +37787-4 0  9994
2 25520 028.4550 180.4370 0005312 173.9948 186.0711 15.28254734021474
Epoch (UTC): 27 March 2017 12:55:16
Eccentricity: 0.0005312
inclination: 28.4550°
perigee height: 477 km
apogee height: 484 km
right ascension of ascending node: 180.4370°
argument of perigee: 173.9948°
revolutions per day: 15.28254734
mean anomaly at epoch: 186.0711°
orbit number at epoch: 2147

The dashed part of the orbit path shows where the satellite is in the earth's shadow,  

DLR